Tracking 18843 objects as of 20-November-2017
HD Live streaming from Space Station
objects crossing your sky now

FENGYUN 1C DEB

Track FENGYUN 1C DEB now!
10-day predictions


NORAD ID: 32205
Int'l Code: 1999-025CVB
Perigee: 850.3 km
Apogee: 866.7 km
Inclination: 98.9 °
Period: 102.0 minutes
Semi major axis: 7229 km
RCS: 0.0128 m2 (small)
Launch date: May 10, 1999
Source: People's Republic of China (PRC)
Launch site: Taiyaun Space Center, China (TSC)

Note: This is SATELLITE DEBRIS
aabbcc
Your satellite tracking list
Your tracking list is empty




NASA's NSSDC Master Catalog

Two Line Element Set (TLE):
1 32205U 99025CVB 17324.28415716  .00000061  00000-0  57405-4 0  9990
2 32205  98.8957 349.7191 0011371  24.0063  36.4890 14.12349397533242
Source of the keplerian elements: AFSPC